Weather observations for the past three days for
San Jose / Reid / Hillv
Metric (Imperial)
Date Time (pdt) Wind (kph) Vis. (km) Weather Sky Cond. Temperature (ºC) Relative Humidity Wind Chill (°C) Heat Index (°C) Pressure Precipitation (cm)
Air Dwpt 6 hour altimeter (cm) sea level (mb) 1 hr 3 hr 6 hr
Max. Min.
31 21:55 NW 13 16.09 Clear SKC 17 11 68% 76.12 0.0
31 20:47 N 17 16.09 Clear SKC 17 12 73% 76.07 0.0
31 19:47 N 19 16.09 Clear SKC 18 12 68% 76.02 0.0
31 18:55 NW 20 16.09 Clear SKC 18 11 64% 76 0.0
31 17:47 NW 20 16.09 Clear SKC 21 12 57% 76 0.0
31 16:47 NW 20 16.09 Clear SKC 22 12 53% 76 0.0
31 15:47 NW 17 G 28 16.09 Clear SKC 22 12 53% 76.02 0.0
31 14:47 NW 17 G 28 16.09 Clear SKC 22 12 53% 76.05 0.0
31 13:51 NW 13 16.09 A Few Clouds FEW025 22 11 50% 76.1 0.0
31 12:47 Calm 16.09 Partly Cloudy SCT025 19 14 73% 76.15 0.0
31 11:47 E 6 16.09 Mostly Cloudy BKN025 18 12 68% 76.17 0.0
31 10:47 Calm 16.09 Overcast OVC015 16 11 72% 76.2 0.0
31 09:47 S 7 14.48 Overcast OVC015 16 11 72% 76.15 0.0
31 08:47 S 7 12.87 Overcast OVC015 15 12 82% 76.15 0.0
31 07:47 Calm 12.87 Overcast OVC015 14 12 88% 76.12 0.0
31 06:55 S 9 12.87 Overcast OVC015 14 11 82% 76.07 0.0
30 21:57 W 7 16.09 Clear SKC 17 12 73% 76.02 0.0
30 20:47 NW 11 16.09 Clear SKC 18 13 73% 75.97 0.0
30 19:47 NW 11 16.09 Clear SKC 20 13 64% 75.92 0.0
30 17:47 NW 20 16.09 Clear SKC 24 13 50% 25 75.9 0.0
30 15:47 NW 17 16.09 Clear SKC 26 13 45% 26 76.15 0.0
30 13:47 Calm 16.09 Clear SKC 26 11 39% 26 76.02 0.0
30 12:47 NW 11 16.09 Clear SKC 24 11 44% 25 76.05 0.0
30 11:47 NW 9 16.09 Clear SKC 23 10 44% 76.07 0.0
30 10:55 Calm 16.09 Clear SKC 21 10 50% 76.12 0.0
30 09:51 Calm 16.09 Clear SKC 19 10 56% 76.12 0.0
30 08:50 Calm 16.09 Clear SKC 17 9 60% 76.15 0.0
30 07:47 Calm 16.09 Clear SKC 14 9 72% 76.15 0.0
30 06:55 Calm 16.09 Clear SKC 13 9 77% 76.12 0.0
29 21:57 W 7 16.09 Clear SKC 17 11 68% 76.12 0.0
29 20:57 NW 13 16.09 Clear SKC 19 12 64% 76.1 0.0
29 19:47 NW 13 16.09 Clear SKC 21 11 53% 76.05 0.0
29 16:47 N 206 16.09 Clear and Windy SKC 25 10 39% 26 76.05 0.0
29 15:47 NW 19 16.09 Clear SKC 28 11 35% 27 76.05 0.0
29 14:47 NW 22 16.09 Clear SKC 28 12 37% 27 76.07 0.0
29 13:47 Calm 16.09 Clear SKC 27 12 39% 27 76.12 0.0
29 12:47 NW 17 16.09 Clear SKC 26 10 37% 26 76.15 0.0
29 11:47 NW 9 16.09 Clear SKC 24 12 47% 25 76.23 0.0
29 10:48 NW 9 16.09 Clear SKC 22 13 57% 76.25 0.0
29 09:47 Calm 16.09 Clear SKC 19 13 68% 76.23 0.0
29 08:47 Calm 16.09 NULL NULL 16 13 83% 76.25 0.0
29 07:47 NW 6 16.09 Overcast OVC010 15 13 88% 76.23 0.0
29 06:55 Calm 16.09 Overcast OVC010 15 13 88% 76.2 0.0
Date Time (pdt) Wind (kph) Vis. (km) Weather Sky Cond. Air Dwpt Max. Min. Relative Humidity Wind Chill (°C) Heat Index (°C) altimeter (cm) sea level (mb) 1 hr 3 hr 6 hr
6 hour
Temperature (ºC) Pressure Precipitation (cm)